This is the latest recevied weather packets stored in our database for station/object W7TRD. If no packets are shown the sender has not sent any weather packets the latest 10 day(s).
| Time | Temp. | Humidity | Pressure | Rain* | Wind** | Luminosity | Snow |
|---|---|---|---|---|---|---|---|
| 1777850069 | 33.89° C | 30% | 1008.5 hPa | 0 mm | - | 502 W/m² | - |
| 1777849765 | 33.89° C | 30% | 1008.5 hPa | 0 mm | - | 514 W/m² | - |
| 1777849462 | 33.89° C | 32% | 1008.7 hPa | 0 mm | - | 523 W/m² | - |
| 1777849160 | 33.33° C | 32% | 1008.9 hPa | 0 mm | - | 536 W/m² | - |
| 1777848856 | 33.89° C | 31% | 1009 hPa | 0 mm | - | 547 W/m² | - |
| 1777848552 | 33.33° C | 32% | 1008.9 hPa | 0 mm | - | 557 W/m² | - |
| 1777848249 | 32.78° C | 31% | 1009.1 hPa | 0 mm | - | 569 W/m² | - |
| 1777847947 | 33.33° C | 31% | 1009.2 hPa | 0 mm | - | 580 W/m² | - |
| 1777847645 | 33.89° C | 31% | 1009.2 hPa | 0 mm | - | 587 W/m² | - |
| 1777847339 | 34.44° C | 31% | 1009.2 hPa | 0 mm | - | 598 W/m² | - |
| 1777847038 | 33.89° C | 29% | 1009.2 hPa | 0 mm | - | 609 W/m² | - |
| 1777846736 | 33.89° C | 30% | 1009.5 hPa | 0 mm | - | 614 W/m² | - |
| 1777846434 | 33.89° C | 30% | 1009.3 hPa | 0 mm | - | 624 W/m² | - |
| 1777846130 | 33.89° C | 30% | 1009.4 hPa | 0 mm | - | 634 W/m² | - |
| 1777845827 | 33.89° C | 30% | 1009.6 hPa | 0 mm | - | 641 W/m² | - |
| 1777845524 | 33.89° C | 31% | 1009.7 hPa | 0 mm | - | 648 W/m² | - |
| 1777845221 | 33.33° C | 31% | 1009.7 hPa | 0 mm | - | 656 W/m² | - |
| 1777844919 | 33.33° C | 31% | 1009.8 hPa | 0 mm | - | 664 W/m² | - |
| 1777844616 | 33.89° C | 29% | 1009.9 hPa | 0 mm | - | 672 W/m² | - |
| 1777844313 | 33.33° C | 33% | 1009.9 hPa | 0 mm | - | 677 W/m² | - |
| 1777844011 | 33.33° C | 30% | 1009.9 hPa | 0 mm | - | 685 W/m² | - |
| 1777843708 | 33.33° C | 31% | 1010 hPa | 0 mm | - | 690 W/m² | - |
| 1777843406 | 32.78° C | 32% | 1010.1 hPa | 0 mm | - | 697 W/m² | - |
| 1777843103 | 33.33° C | 33% | 1010.1 hPa | 0 mm | - | 702 W/m² | - |
| 1777842799 | 32.78° C | 33% | 1010 hPa | 0 mm | - | 708 W/m² | - |
* Rain latest hour (hover to see other rain measurements)
** Current wind speed in m/s (hover to see current wind gust speed)